{"data":{"norad_id":69268,"intl_designator":"2026-118B","name":"KUIPER-00383","alt_names":[],"object_type":"PAYLOAD","status":"ACTIVE","operator":null,"country":"US","launch_date":"2026-05-29","launch_site_code":"AFETR","launch_vehicle":null,"mission":null,"orbit_class":"UNKNOWN","rcs_meters":null,"size_class":null,"mass_kg":null,"dimensions":null,"purposes":[],"wikipedia_slug":null,"has_3d_model":false,"image_url":null,"decayed_at":null,"tle_current":{"epoch":"2026-09-20T04:57:21.669984Z","epoch_age_seconds":56210,"freshness":"FRESH","line1":"1 69268U 26118B   26263.20650081  .00000419  00000+0  83970-4 0  9994","line2":"2 69268  51.9002 337.9861 0000257  91.3321 268.7671 14.79929707 18269","mean_motion":14.79929707,"eccentricity":2.57e-5,"inclination_deg":51.9002,"raan_deg":337.9861,"arg_perigee_deg":91.3321,"mean_anomaly_deg":268.7671,"bstar":8.397e-5,"rev_number":1826,"period_min":97.301918678223,"perigee_km":629.36592692554,"apogee_km":629.72612183299,"semimajor_km":7007.6830243793,"source":"CELESTRAK","updated_at":"2026-09-20T09:00:24.775788Z"}}}